Time,TemperatureF,DewpointF,PressureIn,WindDirection,WindDirectionDegrees,WindSpeedMPH,WindSpeedGustMPH,Humidity,HourlyPrecipIn,Conditions,Clouds,dailyrainin,SoftwareType,DateUTC
2013-10-10 14:49:00,71.6,46.0,29.68,North,0,0.0,0.0,40,0.00,,BKN,-99.99,VWS V12.07,2013-10-10 12:49:00,
2013-10-10 14:51:00,71.2,45.7,29.68,North,0,0.0,0.0,40,0.00,,BKN,-99.99,VWS V12.07,2013-10-10 12:51:00,
2013-10-10 15:02:00,71.2,46.4,29.68,North,0,0.0,0.0,41,0.00,,BKN,-99.99,VWS V12.07,2013-10-10 13:02:00,
2013-10-10 15:11:00,71.4,46.5,29.68,North,0,0.0,0.0,41,0.00,,BKN,-99.99,VWS V12.07,2013-10-10 13:11:00,
2013-10-10 15:15:00,71.2,47.6,29.68,North,0,0.0,0.0,43,0.00,,BKN,-99.99,VWS V12.07,2013-10-10 13:15:00,
2013-10-10 15:20:00,70.9,47.3,29.68,North,0,0.0,0.0,43,0.00,,BKN,-99.99,VWS V12.07,2013-10-10 13:20:00,
2013-10-10 15:25:00,70.7,47.1,29.68,North,0,0.0,0.0,43,0.00,,BKN,-99.99,VWS V12.07,2013-10-10 13:25:00,
2013-10-10 15:30:00,70.5,47.0,29.68,North,0,0.0,0.0,43,0.00,,BKN,-99.99,VWS V12.07,2013-10-10 13:30:00,
2013-10-10 15:41:00,70.7,47.1,29.68,North,0,0.0,0.0,43,0.00,,BKN,-99.99,VWS V12.07,2013-10-10 13:41:00,
2013-10-10 15:51:00,70.5,47.0,29.68,North,0,0.0,0.0,43,0.00,,BKN,-99.99,VWS V12.07,2013-10-10 13:51:00,
2013-10-10 16:01:00,70.3,46.8,29.68,North,0,0.0,0.0,43,0.00,,BKN,-99.99,VWS V12.07,2013-10-10 14:01:00,
2013-10-10 16:10:00,70.2,47.2,29.68,North,0,0.0,0.0,44,0.00,,BKN,-99.99,VWS V12.07,2013-10-10 14:10:00,
2013-10-10 16:20:00,70.0,47.1,29.68,North,0,0.0,0.0,44,0.00,,BKN,-99.99,VWS V12.07,2013-10-10 14:20:00,
2013-10-10 16:35:00,69.8,46.9,29.68,North,0,0.0,0.0,44,0.00,,BKN,-99.99,VWS V12.07,2013-10-10 14:35:00,
2013-10-10 16:40:00,70.0,47.1,29.68,North,0,0.0,0.0,44,0.00,,BKN,-99.99,VWS V12.07,2013-10-10 14:40:00,
2013-10-10 16:46:00,70.2,46.6,29.68,North,0,0.0,0.0,43,0.00,,BKN,-99.99,VWS V12.07,2013-10-10 14:46:00,
2013-10-10 16:51:00,70.2,47.2,29.65,North,0,0.0,0.0,44,0.00,,BKN,-99.99,VWS V12.07,2013-10-10 14:51:00,
2013-10-10 17:01:00,69.8,47.5,29.65,North,0,0.0,0.0,45,0.00,,BKN,-99.99,VWS V12.07,2013-10-10 15:01:00,
2013-10-10 17:10:00,69.6,48.5,29.65,North,0,0.0,0.0,47,0.00,,BKN,-99.99,VWS V12.07,2013-10-10 15:10:00,
2013-10-10 17:20:00,69.6,48.5,29.65,North,0,0.0,0.0,47,0.00,,BKN,-99.99,VWS V12.07,2013-10-10 15:20:00,
2013-10-10 17:34:00,69.8,46.9,29.65,North,0,0.0,0.0,44,0.00,,BKN,-99.99,VWS V12.07,2013-10-10 15:34:00,
2013-10-10 17:41:00,69.6,48.0,29.65,North,0,0.0,0.0,46,0.00,,SCT,-99.99,VWS V12.07,2013-10-10 15:41:00,
2013-10-10 17:52:00,69.4,48.3,29.65,North,0,0.0,0.0,47,0.00,,SCT,-99.99,VWS V12.07,2013-10-10 15:52:00,
2013-10-10 18:01:00,69.3,48.8,29.65,North,0,0.0,0.0,48,0.00,,SCT,-99.99,VWS V12.07,2013-10-10 16:01:00,
2013-10-10 18:11:00,68.9,49.0,29.65,North,0,0.0,0.0,49,0.00,,SCT,-99.99,VWS V12.07,2013-10-10 16:11:00,
2013-10-10 18:17:00,68.7,48.8,29.65,North,0,0.0,0.0,49,0.00,,SCT,-99.99,VWS V12.07,2013-10-10 16:17:00,
2013-10-10 18:26:00,68.5,49.2,29.65,North,0,0.0,0.0,50,0.00,,SCT,-99.99,VWS V12.07,2013-10-10 16:26:00,
2013-10-10 18:36:00,68.2,49.9,29.65,North,0,0.0,0.0,52,0.00,,SCT020,-99.99,VWS V12.07,2013-10-10 16:36:00,
2013-10-10 18:41:00,68.0,50.2,29.65,North,0,0.0,0.0,53,0.00,,SCT020,-99.99,VWS V12.07,2013-10-10 16:41:00,
2013-10-10 18:51:00,67.8,50.6,29.62,North,0,0.0,0.0,54,0.00,,SCT020,-99.99,VWS V12.07,2013-10-10 16:51:00,
2013-10-10 19:04:00,67.8,51.1,29.62,North,0,0.0,0.0,55,0.00,,SCT020,-99.99,VWS V12.07,2013-10-10 17:04:00,
2013-10-10 19:11:00,68.0,50.8,29.62,North,0,0.0,0.0,54,0.00,,SCT020,-99.99,VWS V12.07,2013-10-10 17:11:00,
2013-10-10 19:21:00,67.8,51.1,29.62,North,0,0.0,0.0,55,0.00,,SCT020,-99.99,VWS V12.07,2013-10-10 17:21:00,
2013-10-10 19:31:00,67.8,51.1,29.62,North,0,0.0,0.0,55,0.00,,SCT020,-99.99,VWS V12.07,2013-10-10 17:31:00,
2013-10-10 19:40:00,67.8,51.1,29.62,North,0,0.0,0.0,55,0.00,,SCT030,-99.99,VWS V12.07,2013-10-10 17:40:00,
2013-10-10 19:46:00,68.0,50.8,29.62,North,0,0.0,0.0,54,0.00,,SCT030,-99.99,VWS V12.07,2013-10-10 17:46:00,
2013-10-10 19:51:00,68.0,50.8,29.62,North,0,0.0,0.0,54,0.00,,SCT030,-99.99,VWS V12.07,2013-10-10 17:51:00,
2013-10-10 20:03:00,66.7,55.5,29.62,North,0,0.0,0.0,67,0.00,,SCT030,-99.99,VWS V12.07,2013-10-10 18:03:00,
2013-10-10 20:11:00,66.2,56.5,29.62,North,0,0.0,0.0,71,0.00,,SCT030,-99.99,VWS V12.07,2013-10-10 18:11:00,
2013-10-10 20:19:00,66.0,57.9,29.62,North,0,0.0,0.0,75,0.00,,SCT030,-99.99,VWS V12.07,2013-10-10 18:19:00,
2013-10-10 20:26:00,65.7,57.9,29.62,North,0,0.0,0.0,76,0.00,,SCT030,-99.99,VWS V12.07,2013-10-10 18:26:00,
2013-10-10 20:33:00,65.5,58.1,29.62,North,0,0.0,0.0,77,0.00,,SCT030,-99.99,VWS V12.07,2013-10-10 18:33:00,
2013-10-10 20:40:00,65.7,58.6,29.62,North,0,0.0,0.0,78,0.00, -RA,-RA,-99.99,VWS V12.07,2013-10-10 18:40:00,
2013-10-10 20:50:00,65.7,59.0,29.62,North,0,0.0,0.0,79,0.12, -RA,-RA,-99.99,VWS V12.07,2013-10-10 18:50:00,
2013-10-10 21:01:00,65.3,58.6,29.62,North,0,0.0,0.0,79,0.12, -RA,-RA,-99.99,VWS V12.07,2013-10-10 19:01:00,
2013-10-10 21:11:00,65.3,57.5,29.59,North,0,0.0,0.0,76,0.12, -RA,-RA,-99.99,VWS V12.07,2013-10-10 19:11:00,
2013-10-10 21:21:00,65.3,57.2,29.62,North,0,0.0,0.0,75,0.12, -RA,-RA,-99.99,VWS V12.07,2013-10-10 19:21:00,
2013-10-10 21:31:00,65.3,56.8,29.62,North,0,0.0,0.0,74,0.12, -RA,-RA,-99.99,VWS V12.07,2013-10-10 19:31:00,
2013-10-10 21:46:00,65.1,57.0,29.62,North,0,0.0,0.0,75,0.12,,BKN070,-99.99,VWS V12.07,2013-10-10 19:46:00,
2013-10-10 21:51:00,64.9,56.8,29.62,North,0,0.0,0.0,75,0.00,,BKN070,-99.99,VWS V12.07,2013-10-10 19:51:00,
2013-10-10 22:01:00,64.8,57.0,29.62,North,0,0.0,0.0,76,0.00,,BKN070,-99.99,VWS V12.07,2013-10-10 20:01:00,
2013-10-10 22:11:00,64.6,56.1,29.62,North,0,0.0,0.0,74,0.00,,BKN070,-99.99,VWS V12.07,2013-10-10 20:11:00,
2013-10-10 22:16:00,64.8,55.9,29.62,North,0,0.0,0.0,73,0.00,,BKN070,-99.99,VWS V12.07,2013-10-10 20:16:00,
2013-10-10 22:25:00,64.8,55.9,29.62,North,0,0.0,0.0,73,0.00,,BKN070,-99.99,VWS V12.07,2013-10-10 20:25:00,
2013-10-10 22:31:00,64.9,56.1,29.62,North,0,0.0,0.0,73,0.00,,BKN070,-99.99,VWS V12.07,2013-10-10 20:31:00,
2013-10-10 22:35:00,64.9,56.1,29.62,North,0,0.0,0.0,73,0.00,,BKN,-99.99,VWS V12.07,2013-10-10 20:35:00,
2013-10-10 22:41:00,64.9,56.1,29.62,North,0,0.0,0.0,73,0.00,,BKN,-99.99,VWS V12.07,2013-10-10 20:41:00,
2013-10-10 22:51:00,65.1,55.9,29.62,North,0,0.0,0.0,72,0.00,,BKN,-99.99,VWS V12.07,2013-10-10 20:51:00,
2013-10-10 23:02:00,65.5,55.0,29.62,North,0,0.0,0.0,69,0.00,,BKN,-99.99,VWS V12.07,2013-10-10 21:02:00,
2013-10-10 23:11:00,65.7,55.2,29.62,North,0,0.0,0.0,69,0.00,,BKN,-99.99,VWS V12.07,2013-10-10 21:11:00,
2013-10-10 23:16:00,65.7,55.2,29.62,North,0,0.0,0.0,69,0.00,,BKN,-99.99,VWS V12.07,2013-10-10 21:16:00,
2013-10-10 23:25:00,65.7,55.2,29.62,North,0,0.0,0.0,69,0.00,,BKN,-99.99,VWS V12.07,2013-10-10 21:25:00,
2013-10-10 23:30:00,65.5,55.5,29.62,North,0,0.0,0.0,70,0.00,,BKN,-99.99,VWS V12.07,2013-10-10 21:30:00,
2013-10-10 23:40:00,65.5,55.5,29.62,North,0,0.0,0.0,70,0.00,,BKN,-99.99,VWS V12.07,2013-10-10 21:40:00,
2013-10-10 23:50:00,65.5,55.8,29.62,North,0,0.0,0.0,71,0.00,,BKN,-99.99,VWS V12.07,2013-10-10 21:50:00,